Location: Mahannah Oil Field
(37.4664°N, 96.6003°W)
Time: 13:19:56
(UTC+00:00)

Transit 2A Rocket - Pass Details

Date: 21 January 2021
Orbit: 594 x 908 km, 66.7° (Epoch: 07 March)

Event Time Altitude Azimuth Distance (km) Brightness Sun altitude
Rises 17:57:42 0° 178° (S) 3,416 9.5 32.0°
Reaches altitude 10° 18:00:33 10° 167° (SSE) 2,440 9.2 32.1°
Maximum altitude 18:05:15 28° 110° (ESE) 1,453 7.1 32.3°
Drops below altitude 10° 18:09:40 10° 52° (NE) 2,278 7.3 32.4°
Sets 18:12:13 0° 41° (NE) 3,150 7.8 32.5°
